DW7199 Weather Reports


time (UTC)temp
C
wind
direction
speed
KPH
gust
KPH
rain 1hr
cm
rain 24hr
cm
rain mn
cm
humidity
%
barometer
mb
20260906051533 24 121 0.0 0.0 0.00 0.00 0.00 89 1010.7
20260906050033 24 121 0.0 0.0 0.00 0.00 0.00 88 1010.6
20260906044534 25 121 0.0 0.0 0.00 0.00 0.00 88 1010.6
20260906043031 25 121 0.0 0.0 0.00 0.00 0.00 88 1010.5
20260906041530 25 121 0.0 0.0 0.00 0.00 0.00 88 1010.6
20260906040034 25 121 0.0 0.0 0.00 0.00 0.00 87 1010.5
20260906034531 25 121 0.0 0.0 0.00 0.00 0.00 87 1010.5
20260906033029 26 121 0.0 0.0 0.00 0.00 0.00 85 1010.5
20260906031543 26 121 0.0 0.0 0.00 0.00 0.00 84 1010.6
20260906030028 26 121 0.0 0.0 0.00 0.00 0.00 85 1010.5
20260906024528 26 121 0.0 0.0 0.00 0.00 0.00 82 1010.5
20260906023028 27 121 0.0 0.0 0.00 0.00 0.00 83 1010.3
20260906021527 27 121 0.0 0.0 0.00 0.00 0.00 82 1010.1
20260906020031 27 121 0.0 0.0 0.00 0.00 0.00 80 1010.0
20260906014530 28 121 0.0 0.0 0.00 0.00 0.00 79 1009.8
20260906013025 29 121 0.0 0.0 0.00 0.00 0.00 75 1009.7
20260906011525 30 121 0.0 0.0 0.00 0.00 0.00 72 1009.5
20260906010024 31 121 0.0 0.0 0.00 0.00 0.00 69 1009.4
20260906004524 31 121 0.0 0.0 0.00 0.00 0.00 67 1009.3
20260906003026 33 121 0.0 0.0 0.00 0.00 0.00 63 1009.3
20260906001523 34 121 0.0 0.0 0.00 0.00 0.00 61 1009.3
20260906000023 36 121 0.0 0.0 0.00 0.00 0.00 59 1009.3
20260905234522 37 178 0.0 0.0 0.00 0.00 0.00 58 1009.2
20260905233025 37 127 0.0 0.0 0.00 0.00 0.00 49 1009.4
20260905231520 37 127 0.0 3.2 0.00 0.00 0.00 47 1009.5
20260905230019 37 163 0.0 3.2 0.00 0.00 0.00 46 1009.3
20260905224518 37 109 0.0 6.4 0.00 0.00 0.00 45 1009.5
20260905223031 37 145 1.6 4.8 0.00 0.00 0.00 45 1009.6
20260905221534 38 141 1.6 6.4 0.00 0.00 0.00 44 1009.6
20260905220016 38 185 1.6 4.8 0.00 0.00 0.00 43 1009.5
20260905214515 37 129 0.0 6.4 0.00 0.00 0.00 44 1009.6
20260905213015 37 104 1.6 4.8 0.00 0.00 0.00 45 1009.8
20260905211533 38 118 1.6 12.9 0.00 0.00 0.00 42 1009.7
20260905210012 39 122 4.8 20.9 0.00 0.00 0.00 41 1009.8
20260905204511 38 14 0.0 4.8 0.00 0.00 0.00 39 1009.9
20260905203009 38 350 1.6 9.7 0.00 0.00 0.00 41 1010.1
20260905201507 38 8 6.4 14.5 0.00 0.00 0.00 41 1010.4
20260905200004 38 15 3.2 16.1 0.00 0.00 0.00 41 1010.6
20260905194502 38 13 6.4 9.7 0.00 0.00 0.00 41 1010.9
20260905193100 38 26 4.8 11.3 0.00 0.00 0.00 43 1011.0
20260905191557 38 11 3.2 11.3 0.00 0.00 0.00 41 1011.2
20260905190056 38 354 4.8 17.7 0.00 0.00 0.00 43 1011.4
20260905184603 37 346 1.6 9.7 0.00 0.00 0.00 42 1011.5
20260905183054 38 8 4.8 12.9 0.00 0.00 0.00 41 1011.7
20260905181551 37 15 4.8 14.5 0.00 0.00 0.00 43 1011.7
20260905180056 37 305 1.6 14.5 0.00 0.00 0.00 44 1011.9
20260905174556 37 11 4.8 16.1 0.00 0.00 0.00 44 1012.1
20260905173049 37 297 3.2 14.5 0.00 0.00 0.00 45 1012.2
20260905171559 37 71 3.2 11.3 0.00 0.00 0.00 47 1012.3
20260905170050 37 23 4.8 9.7 0.00 0.00 0.00 48 1012.6
20260905164547 37 328 3.2 8.0 0.00 0.00 0.00 50 1012.7
20260905163039 36 341 3.2 11.3 0.00 0.00 0.00 50 1012.9
20260905161541 36 58 4.8 9.7 0.00 0.00 0.00 50 1013.1
20260905160044 35 294 1.6 8.0 0.00 0.00 0.00 56 1013.1
20260905154548 35 342 3.2 9.7 0.00 0.00 0.00 58 1013.2
20260905153029 34 237 0.0 4.8 0.00 0.00 0.00 59 1013.2
20260905151529 33 325 1.6 4.8 0.00 0.00 0.00 63 1013.2
20260905150021 32 266 1.6 4.8 0.00 0.00 0.00 67 1013.3
20260905144528 31 279 0.0 4.8 0.00 0.00 0.00 70 1013.3
20260905143013 30 305 1.6 4.8 0.00 0.00 0.00 75 1013.2
20260905141509 28 60 0.0 0.0 0.00 0.00 0.00 81 1013.2
20260905140005 27 25 0.0 0.0 0.00 0.00 0.00 88 1013.1
20260905134611 25 147 0.0 0.0 0.00 0.00 0.00 93 1013.1
20260905133058 24 147 0.0 0.0 0.00 0.00 0.00 96 1013.0
20260905131602 23 147 0.0 0.0 0.00 0.00 0.00 96 1012.9
20260905130057 23 147 0.0 0.0 0.00 0.00 0.00 96 1013.0
20260905124556 23 147 0.0 0.0 0.00 0.00 0.00 95 1012.9
20260905123055 22 147 0.0 0.0 0.00 0.00 0.00 95 1012.8
20260905121553 22 147 0.0 0.0 0.00 0.00 0.00 95 1012.6
20260905120054 22 147 0.0 0.0 0.00 0.00 0.00 94 1012.6
20260905114607 22 147 0.0 0.0 0.00 0.00 0.00 94 1012.4
20260905113051 22 147 0.0 0.0 0.00 0.00 0.00 93 1012.2
20260905111602 22 147 0.0 0.0 0.00 0.00 0.00 94 1012.1
20260905110048 22 147 0.0 0.0 0.00 0.00 0.00 93 1012.0
20260905104551 22 147 0.0 0.0 0.00 0.00 0.00 92 1012.1
20260905103049 22 147 0.0 0.0 0.00 0.00 0.00 92 1012.3
20260905101545 23 147 0.0 0.0 0.00 0.00 0.00 93 1012.2
20260905100046 23 147 0.0 0.0 0.00 0.00 0.00 93 1012.1
20260905094558 23 147 0.0 0.0 0.00 0.00 0.00 92 1012.1
20260905093045 23 147 0.0 0.0 0.00 0.00 0.00 93 1012.1
20260905091547 23 147 0.0 0.0 0.00 0.00 0.00 92 1011.9
20260905090041 23 147 0.0 0.0 0.00 0.00 0.00 92 1011.9
20260905084544 23 147 0.0 0.0 0.00 0.00 0.00 91 1012.0
20260905083038 23 147 0.0 0.0 0.00 0.00 0.00 92 1012.0
20260905081537 23 147 0.0 0.0 0.00 0.00 0.00 92 1012.1
20260905080050 23 147 0.0 0.0 0.00 0.00 0.00 93 1012.1
20260905074536 23 147 0.0 0.0 0.00 0.00 0.00 93 1012.1
20260905073043 23 147 0.0 0.0 0.00 0.00 0.00 92 1012.1
20260905071534 23 147 0.0 0.0 0.00 0.00 0.00 91 1012.1
20260905070043 23 147 0.0 0.0 0.00 0.00 0.00 90 1012.1
20260905064531 24 147 0.0 0.0 0.00 0.00 0.00 90 1012.3
20260905063032 24 147 0.0 0.0 0.00 0.00 0.00 89 1012.3
20260905061547 24 147 0.0 0.0 0.00 0.00 0.00 89 1012.3
20260905060027 24 147 0.0 0.0 0.00 0.00 0.00 90 1012.2
20260905054526 25 147 0.0 0.0 0.00 0.00 0.00 89 1012.2
20260905053025 25 147 0.0 0.0 0.00 0.00 0.00 88 1012.2